Weather in Everett

United States     47°56′48″N   122°14′56″W
В апреле 2022 года жителям России запретили посещать сайт meteo.paraplan.net по решению Генеральной прокуратуры. Аудитория сайта уменьшилась в 10 раз. Владельцы сайта не видят смысла в поддержке погодного сервера в таких условиях. Сайт будет закрыт в октябре.
temp.,
°C
wind,
m/s
gust,
m/s
humid.,
%
clouds,
%
prec.,
mm/h
press.,
hPa
HPBL,
m
4 october, tue
tue423:00+11nnw11946 0.0 101813
02:00+12ssw11946 0.0 101711
05:00+11ssw119571 0.0 101712
08:00+11s119594 0.0 101825
11:00+19sw1263100 0.0 1017496
14:00+24w1247100 0.0 1016749
17:00+20nnw2359100 0.0 1016193
20:00+12nnw22957 0.0 101837
5 october, wed
wed523:00+12nne119424 0.0 101910
02:00+11ese11955 0.0 102010
05:00+11se119647 0.0 102110
08:00+11se119370 0.0 102112
11:00+20nnw115669 0.0 1021474
14:00+21nnw44566 0.0 1021637
17:00+19nw35631 0.0 1020308
20:00+12nw22945 0.0 102133
6 october, thu
thu623:00+11nnw1297100 0.0 102126
02:00+11nnw11978 0.0 102119
05:00+10n119713 0.0 102121
08:00+11nnw119715 0.0 102133
11:00+19nnw236373 0.0 1021351
14:00+21nnw345198 0.0 1020376
17:00+19nw2556100 0.0 1019231
20:00+14n1182100 0.0 102012
7 october, fri
fri723:00+13nne1179100 0.0 102010
02:00+13ene0079100 0.0 102110
05:00+12se0083100 0.0 102110
08:00+13se0080100 0.0 102210
11:00+21nw1151100 0.0 1022354
14:00+24nw3242100 0.0 1021585
17:00+20nw245277 0.0 1020226
20:00+14nnw117890 0.0 102014
8 october, sat
sat823:00+13n118213 0.0 102112
02:00+12nnw11850 0.0 102010
05:00+11n11900 0.0 102011
08:00+11nne11870 0.0 102011
11:00+20nw23490 0.0 1019422
14:00+22nw33452 0.0 1018440
17:00+20nw35520 0.0 1016258
20:00+13n22810 0.0 101716